Total_Precipitation_Accumulation
1.35 1.31 1.25 1.30 1.19 1.08 1.14 1.22 1.28 1.34 1.25 1.10 1.06 1.09 1.19 1.14 1.19 1.39 1.82 2.41 2.99 3.46 3.67 3.57 3.45 3.33 3.31 3.32 3.54 3.70 3.79 3.92 3.76 3.60 3.44 3.24 3.28 3.29 2.92 2.86 3.01 3.28 3.63
1.38 1.43 1.36 1.29 1.22 1.14 1.15 1.32 1.30 1.33 1.32 1.26 1.11 1.13 1.17 1.13 1.14 1.20 1.38 1.85 2.33 2.87 3.52 3.91 3.74 3.52 3.32 3.30 3.35 3.44 3.59 3.61 3.28 3.19 3.23 3.27 3.39 3.45 3.04 2.88 2.85 2.89 3.20
1.21 1.29 1.31 1.25 1.22 1.22 1.24 1.28 1.33 1.41 1.34 1.25 1.21 1.19 1.18 1.13 1.08 1.13 1.08 1.24 1.43 1.98 2.70 3.28 3.62 3.67 3.64 3.50 3.40 3.40 3.48 3.25 2.96 3.03 3.20 3.24 3.24 3.29 3.24 3.06 2.85 2.78 2.94
1.29 1.29 1.32 1.30 1.31 1.33 1.32 1.36 1.44 1.45 1.42 1.40 1.35 1.31 1.19 1.17 1.13 1.12 1.06 1.05 1.14 1.24 1.61 2.09 2.62 3.07 3.38 3.51 3.62 3.71 3.49 3.07 2.80 2.74 2.90 2.80 2.75 2.88 3.03 3.01 2.82 2.68 2.59
1.37 1.49 1.51 1.50 1.45 1.47 1.48 1.43 1.46 1.39 1.40 1.41 1.32 1.34 1.30 1.26 1.20 1.08 1.11 1.07 1.09 1.07 1.21 1.37 1.65 1.98 2.41 2.92 3.51 3.80 3.37 3.03 2.81 2.59 2.52 2.45 2.49 2.61 2.65 2.51 2.43 2.34 2.31
1.63 1.81 1.87 1.76 1.73 1.71 1.70 1.64 1.69 1.59 1.47 1.50 1.37 1.36 1.33 1.25 1.28 1.25 1.23 1.16 1.20 1.16 1.15 1.18 1.27 1.27 1.52 2.07 2.87 3.37 3.26 3.06 2.84 2.69 2.48 2.41 2.51 2.62 2.57 2.46 2.39 2.37 2.38
1.95 2.09 2.00 2.07 2.07 1.94 1.92 1.98 2.03 1.99 1.81 1.66 1.71 1.60 1.35 1.17 1.25 1.22 1.24 1.30 1.31 1.39 1.40 1.29 1.29 1.29 1.24 1.47 2.10 2.81 3.10 3.03 3.00 2.84 2.68 2.59 2.51 2.53 2.52 2.46 2.46 2.47 2.56
2.16 2.18 2.25 2.35 2.36 2.36 2.30 2.18 2.30 2.46 2.19 1.95 2.07 2.36 1.97 1.62 1.27 1.05 1.16 1.26 1.32 1.56 1.60 1.39 1.23 1.22 1.27 1.41 1.44 1.89 2.35 2.71 2.94 3.01 2.90 2.76 2.65 2.66 2.70 2.56 2.45 2.53 2.57
2.38 2.40 2.44 2.50 2.50 2.37 2.36 2.47 2.61 2.95 2.75 2.37 2.17 2.47 2.32 2.02 1.71 1.27 1.15 1.25 1.35 1.50 1.60 1.64 1.54 1.43 1.35 1.41 1.44 1.34 1.57 2.06 2.55 2.93 3.02 2.96 2.82 3.02 3.19 2.92 2.58 2.44 2.30
2.37 2.45 2.43 2.40 2.37 2.32 2.39 2.46 2.52 2.95 3.17 2.88 2.52 2.10 1.88 1.86 1.99 1.73 1.29 1.25 1.35 1.37 1.48 1.56 1.52 1.61 1.55 1.56 1.60 1.40 1.32 1.66 2.13 2.66 3.06 3.38 3.19 2.99 2.95 3.03 2.84 2.48 2.23
2.26 2.27 2.24 2.32 2.32 2.34 2.41 2.58 2.71 2.99 3.05 3.06 2.87 2.62 2.38 2.07 1.75 1.85 1.82 1.54 1.47 1.37 1.44 1.56 1.60 1.72 1.75 1.77 1.94 1.70 1.44 1.38 1.63 2.14 2.75 3.35 3.56 3.28 2.94 2.87 2.83 2.64 2.34
2.22 2.15 2.10 2.14 2.25 2.37 2.41 2.51 2.68 2.96 3.10 3.21 3.10 2.80 2.70 2.54 2.27 2.17 1.93 1.79 1.76 1.51 1.46 1.50 1.54 1.69 1.86 1.93 1.91 2.07 1.74 1.35 1.30 1.64 2.03 2.69 3.37 3.54 3.34 3.19 3.11 3.01 2.75
1.89 1.95 2.02 2.10 2.22 2.29 2.34 2.47 2.60 2.67 2.83 3.09 3.11 2.93 2.70 2.52 2.51 2.39 2.29 2.00 1.80 1.55 1.53 1.54 1.51 1.56 1.60 1.88 2.00 2.11 1.78 1.42 1.21 1.27 1.49 1.85 2.40 2.97 3.26 3.25 3.25 3.37 3.39
1.81 1.74 1.78 1.86 2.07 2.24 2.32 2.41 2.43 2.42 2.50 2.70 2.70 2.78 2.74 2.49 2.45 2.37 2.38 2.52 2.22 1.94 1.74 1.53 1.45 1.49 1.53 1.72 2.02 2.11 1.66 1.51 1.28 1.18 1.21 1.42 1.64 1.89 2.33 2.85 3.18 3.39 3.61
1.58 1.53 1.57 1.60 1.72 1.92 2.16 2.31 2.28 2.21 2.19 2.36 2.42 2.52 2.66 2.70 2.59 2.50 2.50 2.64 2.64 2.36 2.09 1.81 1.59 1.47 1.52 1.63 2.03 1.92 1.67 1.59 1.50 1.30 1.17 1.22 1.30 1.45 1.64 2.02 2.32 2.55 2.74
1.41 1.34 1.36 1.48 1.64 1.73 1.89 2.09 2.17 2.12 2.13 2.23 2.35 2.47 2.62 2.76 2.78 2.57 2.54 2.57 2.48 2.45 2.28 1.86 1.60 1.51 1.57 1.55 1.92 1.89 1.81 1.86 1.62 1.48 1.38 1.30 1.34 1.33 1.39 1.57 1.65 1.76 1.77
1.25 1.24 1.38 1.47 1.55 1.64 1.81 2.05 2.19 2.19 2.12 2.13 2.13 2.23 2.43 2.56 2.79 2.73 2.63 2.57 2.47 2.38 2.26 2.01 1.75 1.58 1.64 1.68 1.80 1.90 1.88 1.78 1.59 1.58 1.44 1.32 1.31 1.34 1.34 1.43 1.56 1.53 1.45
1.00 1.11 1.25 1.29 1.34 1.37 1.56 1.86 2.05 2.10 2.08 1.97 1.92 2.02 2.27 2.48 2.70 2.81 2.76 2.64 2.57 2.45 2.36 2.32 2.12 1.87 1.75 1.76 1.91 2.02 1.97 1.89 1.82 1.84 1.69 1.51 1.43 1.36 1.35 1.34 1.42 1.54 1.52
1.04 1.13 1.19 1.22 1.26 1.32 1.36 1.50 1.69 1.83 1.83 1.78 1.78 1.79 1.81 2.01 2.32 2.53 2.57 2.64 2.66 2.62 2.60 2.49 2.32 2.21 2.07 1.86 1.97 2.06 2.04 2.06 1.94 2.01 2.01 1.87 1.74 1.62 1.51 1.45 1.44 1.46 1.51
1.06 1.13 1.15 1.21 1.29 1.33 1.34 1.38 1.41 1.47 1.52 1.61 1.65 1.64 1.67 1.72 1.95 2.16 2.26 2.44 2.68 2.71 2.77 2.72 2.48 2.35 2.28 2.04 2.10 2.22 2.31 2.24 2.14 2.01 2.05 1.97 1.93 1.83 1.72 1.58 1.49 1.43 1.42
0.97 1.05 1.10 1.11 1.15 1.24 1.35 1.41 1.30 1.27 1.36 1.45 1.43 1.37 1.39 1.57 1.79 1.93 1.90 2.18 2.53 2.74 2.77 2.75 2.60 2.55 2.34 2.16 2.03 2.00 2.16 2.39 2.39 2.32 2.25 2.02 1.92 1.77 1.77 1.78 1.60 1.43 1.40
0.95 0.98 0.94 0.95 1.03 1.06 1.34 1.37 1.22 1.14 1.19 1.29 1.37 1.36 1.24 1.26 1.38 1.51 1.57 1.70 1.96 2.19 2.52 2.74 2.67 2.57 2.28 2.12 2.08 2.05 2.05 2.16 2.36 2.31 2.31 2.34 2.26 2.16 2.04 1.93 1.92 1.76 1.63
0.92 0.94 0.91 0.90 0.92 1.05 1.19 1.10 1.14 1.07 1.10 1.17 1.26 1.36 1.27 1.17 1.32 1.34 1.47 1.56 1.52 1.59 1.91 2.30 2.47 2.49 2.47 2.36 2.27 2.11 2.04 2.09 2.14 2.18 2.36 2.40 2.37 2.37 2.28 2.29 2.37 2.15 1.95
0.89 0.91 0.96 0.96 0.95 1.02 1.07 0.99 1.09 1.03 1.01 1.06 1.19 1.30 1.35 1.29 1.35 1.48 1.43 1.43 1.36 1.35 1.62 1.65 1.88 2.27 2.44 2.50 2.39 2.38 2.51 2.45 2.26 2.15 2.19 2.25 2.13 2.17 2.23 2.26 2.41 2.29 2.13
0.90 0.95 1.00 1.00 0.92 0.93 1.04 1.00 1.05 1.01 1.00 1.02 1.04 1.13 1.23 1.19 1.45 1.60 1.47 1.57 1.57 1.45 1.66 1.77 1.85 1.96 2.16 2.35 2.39 2.33 2.35 2.41 2.35 2.22 2.04 1.94 1.85 1.89 2.04 2.07 2.07 2.16 2.13
0.74 0.87 0.91 0.92 0.93 0.92 1.17 1.12 1.11 1.00 1.02 1.09 1.10 1.07 1.26 1.29 1.48 1.49 1.33 1.52 1.58 1.54 1.52 1.57 1.57 1.61 1.57 1.76 2.05 2.09 2.26 2.31 2.21 2.12 1.84 1.75 1.70 1.78 1.91 1.75 1.57 1.55 1.57